Location: Cz?stochówka
(50.8142°N, 19.0915°E)
Time: 14:52:24
(UTC+00:00)

Cosmos 2366 rocket - Pass Details

Date: 17 April 2026
Orbit: 954 x 996 km, 82.9° (Epoch: 16 May)

Event Time Altitude Azimuth Distance (km) Brightness Sun altitude
Rises 20:25:43 0° 230° (SW) 3,636 7.0 -21.6°
Reaches altitude 10° 20:28:44 10° 244° (WSW) 2,690 6.4 -21.9°
Maximum altitude 20:33:38 24° 297° (WNW) 1,858 6.1 -22.4°
Drops below altitude 10° 20:38:33 10° 350° (N) 2,695 7.2 -22.8°
Sets 20:41:35 0° 4° (N) 3,646 7.8 -23.0°
